North Springfield, VT

3:13 AM EST on February 10, 2016 (GMT -0500)
Hartness State

Weather History for KVSF - April, 2014

Change the Weather History Date:

Sunday, April 6, 2014

  Actual Average Record
Temperature  
Mean Temperature 40 °F 40 °F  
Max Temperature 52 °F 51 °F 66 °F (2005)
Min Temperature 27 °F 29 °F 19 °F (2003)
Degree Days  
Heating Degree Days 25 25  
Month to date heating degree days 156 157  
Since 1 July heating degree days 7139 6637  
Cooling Degree Days 0 0  
Month to date cooling degree days 0 0  
Year to date cooling degree days 0 0  
Moisture  
Dew Point 20 °F    
Average Humidity 56    
Maximum Humidity 85    
Minimum Humidity 26    
Precipitation  
Precipitation 0.00 in 0.14 in 0.76 in (2009)
Month to date precipitation 0.35 0.91  
Year to date precipitation 6.06 9.82  
Sea Level Pressure  
Sea Level Pressure 30.10 in    
Wind  
Wind Speed 7 mph (WNW)    
Max Wind Speed 18 mph    
Max Gust Speed 29 mph    
Visibility 10 miles    
Events      
T = Trace of Precipitation, MM = Missing Value Source: NWS Daily Summary

Daily Weather History Graph

Daily Weather History Graph

Search for Another Location

Airport or City:

Trip Planner

Search our weather history database for the weather conditions in past years. The results will help you decide how hot, cold, wet, or windy it might be!

Date:

Astronomy

Apr. 06, 2014 Rise Set
Actual Time 6:23 AM EDT 7:22 PM EDT
Civil Twilight 5:54 AM EDT 7:51 PM EDT
Nautical Twilight 5:19 AM EDT 8:26 PM EDT
Astronomical Twilight 4:43 AM EDT 9:02 PM EDT
Moon 11:16 AM EDT (4/6) 1:21 AM EDT (4/6)
Length of Visible Light 13h 57m
Length of Day
12h 59m
Waxing Crescent, 43% of the Moon is Illuminated
Apr 6
Waxing Crescent
Apr 7
First Quarter
Apr 15
Full
Apr 22
Last Quarter
Apr 29
New

Hourly Weather History & Observations

Time (EDT) Temp. Windchill Dew Point Humidity Pressure Visibility Wind Dir Wind Speed Gust Speed Precip Events Conditions
12:54 AM 34.0 °F 28.8 °F 21.0 °F 59% 29.98 in 10.0 mi West 5.8 mph 17.3 mph N/A   Mostly Cloudy
1:54 AM 34.0 °F 26.6 °F 19.9 °F 56% 29.99 in 10.0 mi WNW 9.2 mph 17.3 mph N/A   Overcast
2:54 AM 34.0 °F 27.2 °F 19.0 °F 54% 30.00 in 10.0 mi WNW 8.1 mph 19.6 mph N/A   Mostly Cloudy
3:54 AM 33.1 °F 22.6 °F 19.0 °F 56% 30.02 in 10.0 mi West 16.1 mph 20.7 mph N/A   Clear
4:54 AM 33.1 °F 24.4 °F 19.0 °F 56% 30.04 in 10.0 mi WNW 11.5 mph 24.2 mph N/A   Clear
5:54 AM 32.0 °F 26.4 °F 19.0 °F 59% 30.07 in 10.0 mi West 5.8 mph - N/A   Clear
6:54 AM 32.0 °F - 19.0 °F 59% 30.09 in 10.0 mi Calm Calm - N/A   Partly Cloudy
7:54 AM 33.1 °F 26.9 °F 19.0 °F 56% 30.12 in 10.0 mi Variable 6.9 mph - N/A   Clear
8:54 AM 35.1 °F 26.4 °F 19.0 °F 52% 30.13 in 10.0 mi WNW 12.7 mph 17.3 mph N/A   Clear
9:54 AM 37.0 °F 28.9 °F 19.9 °F 50% 30.14 in 10.0 mi West 12.7 mph 17.3 mph N/A   Clear
10:54 AM 39.0 °F 31.8 °F 19.9 °F 46% 30.14 in 10.0 mi West 11.5 mph 16.1 mph N/A   Clear
11:54 AM 42.1 °F 35.7 °F 18.0 °F 38% 30.13 in 10.0 mi West 11.5 mph - N/A   Clear
12:54 PM 45.0 °F 40.1 °F 17.1 °F 33% 30.12 in 10.0 mi West 9.2 mph - N/A   Clear
1:54 PM 46.9 °F - 15.1 °F 28% 30.12 in 10.0 mi WNW 12.7 mph 21.9 mph N/A   Clear
2:54 PM 48.9 °F - 15.1 °F 26% 30.12 in 10.0 mi WNW 10.4 mph - N/A   Clear
3:54 PM 50.0 °F - 18.0 °F 28% 30.11 in 10.0 mi West 8.1 mph - N/A   Clear
4:54 PM 52.0 °F - 17.1 °F 25% 30.11 in 10.0 mi North 5.8 mph - N/A   Clear
5:54 PM 51.1 °F - 18.0 °F 27% 30.11 in 10.0 mi NW 8.1 mph - N/A   Clear
6:54 PM 48.9 °F - 19.9 °F 32% 30.12 in 10.0 mi WSW 3.5 mph - N/A   Clear
7:54 PM 39.9 °F - 23.0 °F 51% 30.12 in 10.0 mi Calm Calm - N/A   Clear
8:54 PM 34.0 °F - 26.1 °F 73% 30.16 in 9.0 mi Calm Calm - N/A   Clear
9:54 PM 33.1 °F - 25.0 °F 72% 30.18 in 10.0 mi Calm Calm - N/A   Clear
10:54 PM 28.9 °F - 25.0 °F 85% 30.19 in 10.0 mi Calm Calm - N/A   Clear
11:54 PM 30.0 °F - 24.1 °F 79% 30.19 in 10.0 mi Calm Calm - N/A   Clear